Year,Month,Day,Hour,Minute,Value (Times are PST for temperature in C)
2008,04,30,00,00,2.80
2008,04,30,00,01,2.70
2008,04,30,00,02,2.70
2008,04,30,00,03,2.70
2008,04,30,00,04,2.70
2008,04,30,00,05,2.60
2008,04,30,00,06,2.60
2008,04,30,00,07,2.60
2008,04,30,00,08,2.60
2008,04,30,00,09,2.50
2008,04,30,00,10,2.50
2008,04,30,00,11,2.50
2008,04,30,00,12,2.40
2008,04,30,00,13,2.40
2008,04,30,00,14,2.40
2008,04,30,00,15,2.40
2008,04,30,00,16,2.40
2008,04,30,00,17,2.30
2008,04,30,00,18,2.30
2008,04,30,00,19,2.30
2008,04,30,00,20,2.30
2008,04,30,00,21,2.30
2008,04,30,00,22,2.30
2008,04,30,00,23,2.30
2008,04,30,00,24,2.20
2008,04,30,00,25,2.20
2008,04,30,00,26,2.20
2008,04,30,00,27,2.10
2008,04,30,00,28,2.10
2008,04,30,00,29,2.00
2008,04,30,00,30,2.00
2008,04,30,00,31,1.90
2008,04,30,00,32,1.90
2008,04,30,00,33,1.90
2008,04,30,00,34,1.80
2008,04,30,00,35,1.80
2008,04,30,00,36,1.80
2008,04,30,00,37,1.70
2008,04,30,00,38,1.70
2008,04,30,00,39,1.70
2008,04,30,00,40,1.70
2008,04,30,00,41,1.70
2008,04,30,00,42,1.60
2008,04,30,00,43,1.60
2008,04,30,00,44,1.60
2008,04,30,00,45,1.50
2008,04,30,00,46,1.50
2008,04,30,00,47,1.50
2008,04,30,00,48,1.50
2008,04,30,00,49,1.50
2008,04,30,00,50,1.50
2008,04,30,00,51,1.50
2008,04,30,00,52,1.50
2008,04,30,00,53,1.50
2008,04,30,00,54,1.60
2008,04,30,00,55,1.60
2008,04,30,00,56,1.60
2008,04,30,00,57,1.60
2008,04,30,00,58,1.60
2008,04,30,00,59,1.60
2008,04,30,01,00,1.60
2008,04,30,01,01,1.60
2008,04,30,01,02,1.70
2008,04,30,01,03,1.70
2008,04,30,01,04,1.70
2008,04,30,01,05,1.60
2008,04,30,01,06,1.60
2008,04,30,01,07,1.60
2008,04,30,01,08,1.60
2008,04,30,01,09,1.60
2008,04,30,01,10,1.60
2008,04,30,01,11,1.50
2008,04,30,01,12,1.50
2008,04,30,01,13,1.50
2008,04,30,01,14,1.40
2008,04,30,01,15,1.40
2008,04,30,01,16,1.40
2008,04,30,01,17,1.40
2008,04,30,01,18,1.40
2008,04,30,01,19,1.40
2008,04,30,01,20,1.40
2008,04,30,01,21,1.40
2008,04,30,01,22,1.40
2008,04,30,01,23,1.40
2008,04,30,01,24,1.40
2008,04,30,01,25,1.40
2008,04,30,01,26,1.40
2008,04,30,01,27,1.30
2008,04,30,01,28,1.30
2008,04,30,01,29,1.30
2008,04,30,01,30,1.30
2008,04,30,01,31,1.30
2008,04,30,01,32,1.30
2008,04,30,01,33,1.40
2008,04,30,01,34,1.40
2008,04,30,01,35,1.50
2008,04,30,01,36,1.50
2008,04,30,01,37,1.60
2008,04,30,01,38,1.60
2008,04,30,01,39,1.70
2008,04,30,01,40,1.70
2008,04,30,01,41,1.70
2008,04,30,01,42,1.80
2008,04,30,01,43,1.80
2008,04,30,01,44,1.80
2008,04,30,01,45,1.80
2008,04,30,01,46,1.80
2008,04,30,01,47,1.80
2008,04,30,01,48,1.80
2008,04,30,01,49,1.80
2008,04,30,01,50,1.80
2008,04,30,01,51,1.80
2008,04,30,01,52,1.80
2008,04,30,01,53,1.80
2008,04,30,01,54,1.80
2008,04,30,01,55,1.80
2008,04,30,01,56,1.80
2008,04,30,01,57,1.80
2008,04,30,01,58,1.80
2008,04,30,01,59,1.80
2008,04,30,02,00,1.80
2008,04,30,02,01,1.80
2008,04,30,02,02,1.70
2008,04,30,02,03,1.70
2008,04,30,02,04,1.70
2008,04,30,02,05,1.70
2008,04,30,02,06,1.70
2008,04,30,02,07,1.70
2008,04,30,02,08,1.80
2008,04,30,02,09,1.80
2008,04,30,02,10,1.70
2008,04,30,02,11,1.70
2008,04,30,02,12,1.70
2008,04,30,02,13,1.70
2008,04,30,02,14,1.60
2008,04,30,02,15,1.60
2008,04,30,02,16,1.60
2008,04,30,02,17,1.60
2008,04,30,02,18,1.50
2008,04,30,02,19,1.50
2008,04,30,02,20,1.50
2008,04,30,02,21,1.50
2008,04,30,02,22,1.50
2008,04,30,02,23,1.50
2008,04,30,02,24,1.50
2008,04,30,02,25,1.60
2008,04,30,02,26,1.60
2008,04,30,02,27,1.70
2008,04,30,02,28,1.70
2008,04,30,02,29,1.80
2008,04,30,02,30,1.80
2008,04,30,02,31,1.80
2008,04,30,02,32,1.80
2008,04,30,02,33,1.80
2008,04,30,02,34,1.80
2008,04,30,02,35,1.80
2008,04,30,02,36,1.70
2008,04,30,02,37,1.70
2008,04,30,02,38,1.60
2008,04,30,02,39,1.60
2008,04,30,02,40,1.60
2008,04,30,02,41,1.50
2008,04,30,02,42,1.50
2008,04,30,02,43,1.40
2008,04,30,02,44,1.30
2008,04,30,02,45,1.30
2008,04,30,02,46,1.30
2008,04,30,02,47,1.30
2008,04,30,02,48,1.30
2008,04,30,02,49,1.30
2008,04,30,02,50,1.30
2008,04,30,02,51,1.30
2008,04,30,02,52,1.20
2008,04,30,02,53,1.20
2008,04,30,02,54,1.10
2008,04,30,02,55,1.10
2008,04,30,02,56,1.00
2008,04,30,02,57,1.00
2008,04,30,02,58,1.00
2008,04,30,02,59,0.90
2008,04,30,03,00,0.90
2008,04,30,03,01,0.90
2008,04,30,03,02,0.90
2008,04,30,03,03,0.80
2008,04,30,03,04,0.80
2008,04,30,03,05,0.80
2008,04,30,03,06,0.80
2008,04,30,03,07,0.80
2008,04,30,03,08,0.70
2008,04,30,03,09,0.70
2008,04,30,03,10,0.70
2008,04,30,03,11,0.70
2008,04,30,03,12,0.70
2008,04,30,03,13,0.70
2008,04,30,03,14,0.70
2008,04,30,03,15,0.60
2008,04,30,03,16,0.60
2008,04,30,03,17,0.60
2008,04,30,03,18,0.60
2008,04,30,03,19,0.60
2008,04,30,03,20,0.60
2008,04,30,03,21,0.60
2008,04,30,03,22,0.60
2008,04,30,03,23,0.60
2008,04,30,03,24,0.60
2008,04,30,03,25,0.60
2008,04,30,03,26,0.60
2008,04,30,03,27,0.50
2008,04,30,03,28,0.50
2008,04,30,03,29,0.50
2008,04,30,03,30,0.50
2008,04,30,03,31,0.50
2008,04,30,03,32,0.50
2008,04,30,03,33,0.50
2008,04,30,03,34,0.60
2008,04,30,03,35,0.70
2008,04,30,03,36,0.70
2008,04,30,03,37,0.80
2008,04,30,03,38,0.80
2008,04,30,03,39,0.80
2008,04,30,03,40,0.80
2008,04,30,03,41,0.80
2008,04,30,03,42,0.80
2008,04,30,03,43,0.80
2008,04,30,03,44,0.90
2008,04,30,03,45,0.90
2008,04,30,03,46,0.90
2008,04,30,03,47,1.00
2008,04,30,03,48,1.00
2008,04,30,03,49,1.10
2008,04,30,03,50,1.10
2008,04,30,03,51,1.20
2008,04,30,03,52,1.20
2008,04,30,03,53,1.30
2008,04,30,03,54,1.30
2008,04,30,03,55,1.30
2008,04,30,03,56,1.40
2008,04,30,03,57,1.40
2008,04,30,03,58,1.50
2008,04,30,03,59,1.60
2008,04,30,04,00,1.60
2008,04,30,04,01,1.70
2008,04,30,04,02,1.70
2008,04,30,04,03,1.70
2008,04,30,04,04,1.80
2008,04,30,04,05,1.80
2008,04,30,04,06,1.80
2008,04,30,04,07,1.90
2008,04,30,04,08,1.90
2008,04,30,04,09,2.00
2008,04,30,04,10,2.00
2008,04,30,04,11,2.10
2008,04,30,04,12,2.10
2008,04,30,04,13,2.20
2008,04,30,04,14,2.20
2008,04,30,04,15,2.20
2008,04,30,04,16,2.20
2008,04,30,04,17,2.20
2008,04,30,04,18,2.20
2008,04,30,04,19,2.20
2008,04,30,04,20,2.20
2008,04,30,04,21,2.30
2008,04,30,04,22,2.30
2008,04,30,04,23,2.30
2008,04,30,04,24,2.30
2008,04,30,04,25,2.30
2008,04,30,04,26,2.30
2008,04,30,04,27,2.40
2008,04,30,04,28,2.40
2008,04,30,04,29,2.40
2008,04,30,04,30,2.40
2008,04,30,04,31,2.40
2008,04,30,04,32,2.40
2008,04,30,04,33,2.50
2008,04,30,04,34,2.50
2008,04,30,04,35,2.50
2008,04,30,04,36,2.50
2008,04,30,04,37,2.50
2008,04,30,04,38,2.50
2008,04,30,04,39,2.50
2008,04,30,04,40,2.50
2008,04,30,04,41,2.50
2008,04,30,04,42,2.60
2008,04,30,04,43,2.60
2008,04,30,04,44,2.60
2008,04,30,04,45,2.60
2008,04,30,04,46,2.60
2008,04,30,04,47,2.60
2008,04,30,04,48,2.60
2008,04,30,04,49,2.60
2008,04,30,04,50,2.60
2008,04,30,04,51,2.60
2008,04,30,04,52,2.60
2008,04,30,04,53,2.60
2008,04,30,04,54,2.60
2008,04,30,04,55,2.60
2008,04,30,04,56,2.60
2008,04,30,04,57,2.60
2008,04,30,04,58,2.70
2008,04,30,04,59,2.70
2008,04,30,05,00,2.70
2008,04,30,05,01,2.70
2008,04,30,05,02,2.70
2008,04,30,05,03,2.70
2008,04,30,05,04,2.70
2008,04,30,05,05,2.70
2008,04,30,05,06,2.70
2008,04,30,05,07,2.70
2008,04,30,05,08,2.70
2008,04,30,05,09,2.70
2008,04,30,05,10,2.70
2008,04,30,05,11,2.70
2008,04,30,05,12,2.70
2008,04,30,05,13,2.70
2008,04,30,05,14,2.70
2008,04,30,05,15,2.70
2008,04,30,05,16,2.70
2008,04,30,05,17,2.70
2008,04,30,05,18,2.70
2008,04,30,05,19,2.70
2008,04,30,05,20,2.70
2008,04,30,05,21,2.70
2008,04,30,05,22,2.80
2008,04,30,05,23,2.80
2008,04,30,05,24,2.80
2008,04,30,05,25,2.80
2008,04,30,05,26,2.80
2008,04,30,05,27,2.80
2008,04,30,05,28,2.80
2008,04,30,05,29,2.80
2008,04,30,05,30,2.80
2008,04,30,05,31,2.80
2008,04,30,05,32,2.80
2008,04,30,05,33,2.80
2008,04,30,05,34,2.80
2008,04,30,05,35,2.80
2008,04,30,05,36,2.70
2008,04,30,05,37,2.70
2008,04,30,05,38,2.70
2008,04,30,05,39,2.70
2008,04,30,05,40,2.70
2008,04,30,05,41,2.70
2008,04,30,05,42,2.70
2008,04,30,05,43,2.70
2008,04,30,05,44,2.60
2008,04,30,05,45,2.60
2008,04,30,05,46,2.50
2008,04,30,05,47,2.40
2008,04,30,05,48,2.40
2008,04,30,05,49,2.40
2008,04,30,05,50,2.30
2008,04,30,05,51,2.30
2008,04,30,05,52,2.30
2008,04,30,05,53,2.30
2008,04,30,05,54,2.30
2008,04,30,05,55,2.30
2008,04,30,05,56,2.30
2008,04,30,05,57,2.30
2008,04,30,05,58,2.30
2008,04,30,05,59,2.40
2008,04,30,06,00,2.40
2008,04,30,06,01,2.40
2008,04,30,06,02,2.40
2008,04,30,06,03,2.40
2008,04,30,06,04,2.50
2008,04,30,06,05,2.50
2008,04,30,06,06,2.50
2008,04,30,06,07,2.60
2008,04,30,06,08,2.60
2008,04,30,06,09,2.60
2008,04,30,06,10,2.60
2008,04,30,06,11,2.60
2008,04,30,06,12,2.60
2008,04,30,06,13,2.70
2008,04,30,06,14,2.70
2008,04,30,06,15,2.70
2008,04,30,06,16,2.70
2008,04,30,06,17,2.70
2008,04,30,06,18,2.70
2008,04,30,06,19,2.70
2008,04,30,06,20,2.70
2008,04,30,06,21,2.70
2008,04,30,06,22,2.70
2008,04,30,06,23,2.70
2008,04,30,06,24,2.70
2008,04,30,06,25,2.70
2008,04,30,06,26,2.70
2008,04,30,06,27,2.70
2008,04,30,06,28,2.70
2008,04,30,06,29,2.70
2008,04,30,06,30,2.70
2008,04,30,06,31,2.70
2008,04,30,06,32,2.70
2008,04,30,06,33,2.70
2008,04,30,06,34,2.70
2008,04,30,06,35,2.70
2008,04,30,06,36,2.70
2008,04,30,06,37,2.60
2008,04,30,06,38,2.60
2008,04,30,06,39,2.50
2008,04,30,06,40,2.50
2008,04,30,06,41,2.50
2008,04,30,06,42,2.50
2008,04,30,06,43,2.50
2008,04,30,06,44,2.50
2008,04,30,06,45,2.50
2008,04,30,06,46,2.40
2008,04,30,06,47,2.40
2008,04,30,06,48,2.30
2008,04,30,06,49,2.30
2008,04,30,06,50,2.30
2008,04,30,06,51,2.20
2008,04,30,06,52,2.10
2008,04,30,06,53,2.10
2008,04,30,06,54,2.10
2008,04,30,06,55,2.10
2008,04,30,06,56,2.10
2008,04,30,06,57,2.10
2008,04,30,06,58,2.10
2008,04,30,06,59,2.10
2008,04,30,07,00,2.10
2008,04,30,07,01,2.20
2008,04,30,07,02,2.20
2008,04,30,07,03,2.20
2008,04,30,07,04,2.20
2008,04,30,07,05,2.20
2008,04,30,07,06,2.30
2008,04,30,07,07,2.20
2008,04,30,07,08,2.20
2008,04,30,07,09,2.20
2008,04,30,07,10,2.20
2008,04,30,07,11,2.30
2008,04,30,07,12,2.30
2008,04,30,07,13,2.40
2008,04,30,07,14,2.40
2008,04,30,07,15,2.50
2008,04,30,07,16,2.50
2008,04,30,07,17,2.60
2008,04,30,07,18,2.60
2008,04,30,07,19,2.60
2008,04,30,07,20,2.70
2008,04,30,07,21,2.70
2008,04,30,07,22,2.80
2008,04,30,07,23,2.80
2008,04,30,07,24,2.90
2008,04,30,07,25,2.90
2008,04,30,07,26,2.90
2008,04,30,07,27,3.00
2008,04,30,07,28,3.00
2008,04,30,07,29,3.10
2008,04,30,07,30,3.10
2008,04,30,07,31,3.10
2008,04,30,07,32,3.20
2008,04,30,07,33,3.20
2008,04,30,07,34,3.20
2008,04,30,07,35,3.20
2008,04,30,07,36,3.20
2008,04,30,07,37,3.10
2008,04,30,07,38,3.10
2008,04,30,07,39,3.10
2008,04,30,07,40,3.10
2008,04,30,07,41,3.10
2008,04,30,07,42,3.10
2008,04,30,07,43,3.10
2008,04,30,07,44,3.10
2008,04,30,07,45,3.20
2008,04,30,07,46,3.20
2008,04,30,07,47,3.30
2008,04,30,07,48,3.40
2008,04,30,07,49,3.40
2008,04,30,07,50,3.50
2008,04,30,07,51,3.50
2008,04,30,07,52,3.60
2008,04,30,07,53,3.60
2008,04,30,07,54,3.60
2008,04,30,07,55,3.70
2008,04,30,07,56,3.70
2008,04,30,07,57,3.70
2008,04,30,07,58,3.70
2008,04,30,07,59,3.80
2008,04,30,08,00,3.80
2008,04,30,08,01,3.80
2008,04,30,08,02,3.80
2008,04,30,08,03,3.80
2008,04,30,08,04,3.80
2008,04,30,08,05,3.80
2008,04,30,08,06,3.80
2008,04,30,08,07,3.90
2008,04,30,08,08,4.00
2008,04,30,08,09,4.10
2008,04,30,08,10,4.20
2008,04,30,08,11,4.30
2008,04,30,08,12,4.40
2008,04,30,08,13,4.60
2008,04,30,08,14,4.80
2008,04,30,08,15,5.00
2008,04,30,08,16,5.20
2008,04,30,08,17,5.40
2008,04,30,08,18,5.60
2008,04,30,08,19,5.80
2008,04,30,08,20,6.00
2008,04,30,08,21,6.20
2008,04,30,08,22,6.40
2008,04,30,08,23,6.50
2008,04,30,08,24,6.60
2008,04,30,08,25,6.70
2008,04,30,08,26,6.70
2008,04,30,08,27,6.80
2008,04,30,08,28,6.90
2008,04,30,08,29,7.00
2008,04,30,08,30,7.00
2008,04,30,08,31,7.10
2008,04,30,08,32,7.20
2008,04,30,08,33,7.20
2008,04,30,08,34,7.30
2008,04,30,08,35,7.30
2008,04,30,08,36,7.40
2008,04,30,08,37,7.50
2008,04,30,08,38,7.50
2008,04,30,08,39,7.70
2008,04,30,08,40,7.70
2008,04,30,08,41,7.80
2008,04,30,08,42,7.80
2008,04,30,08,43,7.90
2008,04,30,08,44,7.80
2008,04,30,08,45,7.90
2008,04,30,08,46,8.00
2008,04,30,08,47,7.90
2008,04,30,08,48,7.90
2008,04,30,08,49,7.90
2008,04,30,08,50,7.70
2008,04,30,08,51,7.60
2008,04,30,08,52,7.50
2008,04,30,08,53,7.50
2008,04,30,08,54,7.40
2008,04,30,08,55,7.40
2008,04,30,08,56,7.50
2008,04,30,08,57,7.50
2008,04,30,08,58,7.60
2008,04,30,08,59,7.70
2008,04,30,09,00,7.70
2008,04,30,09,01,7.80
2008,04,30,09,02,7.90
2008,04,30,09,03,8.00
2008,04,30,09,04,8.00
2008,04,30,09,05,8.00
2008,04,30,09,06,7.90
2008,04,30,09,07,7.80
2008,04,30,09,08,7.70
2008,04,30,09,09,7.60
2008,04,30,09,10,7.50
2008,04,30,09,11,7.40
2008,04,30,09,12,7.30
2008,04,30,09,13,7.30
2008,04,30,09,14,7.40
2008,04,30,09,15,7.40
2008,04,30,09,16,7.50
2008,04,30,09,17,7.50
2008,04,30,09,18,7.50
2008,04,30,09,19,7.60
2008,04,30,09,20,7.60
2008,04,30,09,21,7.70
2008,04,30,09,22,7.80
2008,04,30,09,23,7.90
2008,04,30,09,24,8.00
2008,04,30,09,25,8.10
2008,04,30,09,26,8.00
2008,04,30,09,27,8.00
2008,04,30,09,28,7.90
2008,04,30,09,29,7.90
2008,04,30,09,30,7.90
2008,04,30,09,31,7.90
2008,04,30,09,32,7.90
2008,04,30,09,33,7.90
2008,04,30,09,34,7.80
2008,04,30,09,35,7.80
2008,04,30,09,36,7.80
2008,04,30,09,37,7.80
2008,04,30,09,38,7.90
2008,04,30,09,39,7.90
2008,04,30,09,40,7.80
2008,04,30,09,41,7.70
2008,04,30,09,42,7.50
2008,04,30,09,43,7.50
2008,04,30,09,44,7.40
2008,04,30,09,45,7.40
2008,04,30,09,46,7.40
2008,04,30,09,47,7.40
2008,04,30,09,48,7.50
2008,04,30,09,49,7.60
2008,04,30,09,50,7.60
2008,04,30,09,51,7.60
2008,04,30,09,52,7.60
2008,04,30,09,53,7.60
2008,04,30,09,54,7.70
2008,04,30,09,55,7.70
2008,04,30,09,56,7.60
2008,04,30,09,57,7.60
2008,04,30,09,58,7.50
2008,04,30,09,59,7.40
2008,04,30,10,00,7.40
2008,04,30,10,01,7.40
2008,04,30,10,02,7.40
2008,04,30,10,03,7.40
2008,04,30,10,04,7.40
2008,04,30,10,05,7.40
2008,04,30,10,06,7.40
2008,04,30,10,07,7.50
2008,04,30,10,08,7.50
2008,04,30,10,09,7.60
2008,04,30,10,10,7.60
2008,04,30,10,11,7.70
2008,04,30,10,12,7.60
2008,04,30,10,13,7.60
2008,04,30,10,14,7.50
2008,04,30,10,15,7.40
2008,04,30,10,16,7.40
2008,04,30,10,17,7.50
2008,04,30,10,18,7.40
2008,04,30,10,19,7.50
2008,04,30,10,20,7.50
2008,04,30,10,21,7.60
2008,04,30,10,22,7.70
2008,04,30,10,23,7.70
2008,04,30,10,24,7.80
2008,04,30,10,25,7.80
2008,04,30,10,26,7.80
2008,04,30,10,27,7.80
2008,04,30,10,28,7.80
2008,04,30,10,29,7.80
2008,04,30,10,30,7.80
2008,04,30,10,31,7.80
2008,04,30,10,32,7.80
2008,04,30,10,33,7.90
2008,04,30,10,34,7.90
2008,04,30,10,35,7.90
2008,04,30,10,36,7.90
2008,04,30,10,37,7.80
2008,04,30,10,38,7.80
2008,04,30,10,39,7.80
2008,04,30,10,40,7.80
2008,04,30,10,41,7.70
2008,04,30,10,42,7.70
2008,04,30,10,43,7.70
2008,04,30,10,44,7.70
2008,04,30,10,45,7.70
2008,04,30,10,46,7.70
2008,04,30,10,47,7.70
2008,04,30,10,48,7.70
2008,04,30,10,49,7.70
2008,04,30,10,50,7.70
2008,04,30,10,51,7.80
2008,04,30,10,52,7.80
2008,04,30,10,53,7.70
2008,04,30,10,54,7.80
2008,04,30,10,55,7.80
2008,04,30,10,56,7.90
2008,04,30,10,57,8.00
2008,04,30,10,58,8.00
2008,04,30,10,59,8.10
2008,04,30,11,00,8.10
2008,04,30,11,01,8.10
2008,04,30,11,02,8.10
2008,04,30,11,03,8.10
2008,04,30,11,04,8.10
2008,04,30,11,05,8.10
2008,04,30,11,06,8.20
2008,04,30,11,07,8.20
2008,04,30,11,08,8.20
2008,04,30,11,09,8.20
2008,04,30,11,10,8.30
2008,04,30,11,11,8.30
2008,04,30,11,12,8.30
2008,04,30,11,13,8.30
2008,04,30,11,14,8.30
2008,04,30,11,15,8.30
2008,04,30,11,16,8.30
2008,04,30,11,17,8.20
2008,04,30,11,18,8.20
2008,04,30,11,19,8.20
2008,04,30,11,20,8.20
2008,04,30,11,21,8.20
2008,04,30,11,22,8.20
2008,04,30,11,23,8.20
2008,04,30,11,24,8.20
2008,04,30,11,25,8.30
2008,04,30,11,26,8.30
2008,04,30,11,27,8.30
2008,04,30,11,28,8.40
2008,04,30,11,29,8.30
2008,04,30,11,30,8.30
2008,04,30,11,31,8.20
2008,04,30,11,32,8.10
2008,04,30,11,33,8.10
2008,04,30,11,34,8.10
2008,04,30,11,35,8.10
2008,04,30,11,36,8.00
2008,04,30,11,37,8.00
2008,04,30,11,38,7.90
2008,04,30,11,39,8.00
2008,04,30,11,40,8.00
2008,04,30,11,41,8.10
2008,04,30,11,42,8.20
2008,04,30,11,43,8.30
2008,04,30,11,44,8.40
2008,04,30,11,45,8.60
2008,04,30,11,46,8.70
2008,04,30,11,47,8.80
2008,04,30,11,48,8.70
2008,04,30,11,49,8.60
2008,04,30,11,50,8.40
2008,04,30,11,51,8.30
2008,04,30,11,52,8.30
2008,04,30,11,53,8.30
2008,04,30,11,54,8.40
2008,04,30,11,55,8.40
2008,04,30,11,56,8.40
2008,04,30,11,57,8.40
2008,04,30,11,58,8.40
2008,04,30,11,59,8.30
2008,04,30,12,00,8.30
2008,04,30,12,01,8.10
2008,04,30,12,02,8.10
2008,04,30,12,03,8.10
2008,04,30,12,04,8.10
2008,04,30,12,05,8.10
2008,04,30,12,06,8.10
2008,04,30,12,07,8.10
2008,04,30,12,08,8.10
2008,04,30,12,09,8.00
2008,04,30,12,10,8.00
2008,04,30,12,11,8.00
2008,04,30,12,12,8.00
2008,04,30,12,13,8.10
2008,04,30,12,14,8.10
2008,04,30,12,15,8.20
2008,04,30,12,16,8.20
2008,04,30,12,17,8.20
2008,04,30,12,18,8.30
2008,04,30,12,19,8.30
2008,04,30,12,20,8.30
2008,04,30,12,21,8.30
2008,04,30,12,22,8.20
2008,04,30,12,23,8.20
2008,04,30,12,24,8.30
2008,04,30,12,25,8.50
2008,04,30,12,26,8.60
2008,04,30,12,27,8.60
2008,04,30,12,28,8.60
2008,04,30,12,29,8.60
2008,04,30,12,30,8.70
2008,04,30,12,31,8.70
2008,04,30,12,32,8.60
2008,04,30,12,33,8.50
2008,04,30,12,34,8.50
2008,04,30,12,35,8.40
2008,04,30,12,36,8.30
2008,04,30,12,37,8.40
2008,04,30,12,38,8.40
2008,04,30,12,39,8.60
2008,04,30,12,40,8.70
2008,04,30,12,41,8.70
2008,04,30,12,42,8.70
2008,04,30,12,43,8.70
2008,04,30,12,44,8.80
2008,04,30,12,45,8.80
2008,04,30,12,46,8.80
2008,04,30,12,47,8.70
2008,04,30,12,48,8.70
2008,04,30,12,49,8.80
2008,04,30,12,50,8.90
2008,04,30,12,51,8.90
2008,04,30,12,52,8.90
2008,04,30,12,53,8.80
2008,04,30,12,54,8.90
2008,04,30,12,55,8.90
2008,04,30,12,56,8.90
2008,04,30,12,57,9.00
2008,04,30,12,58,9.00
2008,04,30,12,59,9.00
2008,04,30,13,00,9.00
2008,04,30,13,01,8.90
2008,04,30,13,02,8.90
2008,04,30,13,03,8.80
2008,04,30,13,04,8.80
2008,04,30,13,05,8.70
2008,04,30,13,06,8.70
2008,04,30,13,07,8.80
2008,04,30,13,08,8.80
2008,04,30,13,09,8.90
2008,04,30,13,10,8.90
2008,04,30,13,11,8.90
2008,04,30,13,12,8.90
2008,04,30,13,13,8.90
2008,04,30,13,14,8.90
2008,04,30,13,15,8.90
2008,04,30,13,16,8.90
2008,04,30,13,17,8.90
2008,04,30,13,18,8.90
2008,04,30,13,19,8.80
2008,04,30,13,20,8.80
2008,04,30,13,21,8.80
2008,04,30,13,22,8.90
2008,04,30,13,23,8.90
2008,04,30,13,24,9.00
2008,04,30,13,25,9.20
2008,04,30,13,26,9.30
2008,04,30,13,27,9.40
2008,04,30,13,28,9.50
2008,04,30,13,29,9.40
2008,04,30,13,30,9.30
2008,04,30,13,31,9.30
2008,04,30,13,32,9.40
2008,04,30,13,33,9.40
2008,04,30,13,34,9.40
2008,04,30,13,35,9.40
2008,04,30,13,36,9.50
2008,04,30,13,37,9.60
2008,04,30,13,38,9.60
2008,04,30,13,39,9.70
2008,04,30,13,40,9.60
2008,04,30,13,41,9.70
2008,04,30,13,42,9.70
2008,04,30,13,43,9.70
2008,04,30,13,44,9.60
2008,04,30,13,45,9.60
2008,04,30,13,46,9.60
2008,04,30,13,47,9.60
2008,04,30,13,48,9.60
2008,04,30,13,49,9.50
2008,04,30,13,50,9.30
2008,04,30,13,51,9.30
2008,04,30,13,52,9.30
2008,04,30,13,53,9.40
2008,04,30,13,54,9.50
2008,04,30,13,55,9.60
2008,04,30,13,56,9.60
2008,04,30,13,57,9.60
2008,04,30,13,58,9.60
2008,04,30,13,59,9.70
2008,04,30,14,00,9.70
2008,04,30,14,01,9.80
2008,04,30,14,02,9.80
2008,04,30,14,03,9.80
2008,04,30,14,04,9.80
2008,04,30,14,05,9.80
2008,04,30,14,06,9.80
2008,04,30,14,07,9.80
2008,04,30,14,08,9.80
2008,04,30,14,09,9.70
2008,04,30,14,10,9.70
2008,04,30,14,11,9.70
2008,04,30,14,12,9.70
2008,04,30,14,13,9.80
2008,04,30,14,14,9.80
2008,04,30,14,15,9.70
2008,04,30,14,16,9.60
2008,04,30,14,17,9.60
2008,04,30,14,18,9.60
2008,04,30,14,19,9.60
2008,04,30,14,20,9.70
2008,04,30,14,21,9.80
2008,04,30,14,22,10.00
2008,04,30,14,23,10.00
2008,04,30,14,24,10.10
2008,04,30,14,25,10.10
2008,04,30,14,26,10.10
2008,04,30,14,27,10.20
2008,04,30,14,28,10.10
2008,04,30,14,29,9.90
2008,04,30,14,30,9.80
2008,04,30,14,31,9.80
2008,04,30,14,32,9.80
2008,04,30,14,33,9.90
2008,04,30,14,34,9.80
2008,04,30,14,35,9.90
2008,04,30,14,36,9.90
2008,04,30,14,37,9.80
2008,04,30,14,38,9.70
2008,04,30,14,39,9.60
2008,04,30,14,40,9.60
2008,04,30,14,41,9.60
2008,04,30,14,42,9.60
2008,04,30,14,43,9.70
2008,04,30,14,44,9.80
2008,04,30,14,45,9.80
2008,04,30,14,46,9.80
2008,04,30,14,47,9.90
2008,04,30,14,48,10.00
2008,04,30,14,49,10.10
2008,04,30,14,50,10.10
2008,04,30,14,51,10.20
2008,04,30,14,52,10.20
2008,04,30,14,53,10.20
2008,04,30,14,54,10.20
2008,04,30,14,55,10.30
2008,04,30,14,56,10.30
2008,04,30,14,57,10.40
2008,04,30,14,58,10.40
2008,04,30,14,59,10.40
2008,04,30,15,00,10.50
2008,04,30,15,01,10.50
2008,04,30,15,02,10.40
2008,04,30,15,03,10.40
2008,04,30,15,04,10.30
2008,04,30,15,05,10.30
2008,04,30,15,06,10.30
2008,04,30,15,07,10.30
2008,04,30,15,08,10.30
2008,04,30,15,09,10.30
2008,04,30,15,10,10.30
2008,04,30,15,11,10.30
2008,04,30,15,12,10.40
2008,04,30,15,13,10.40
2008,04,30,15,14,10.40
2008,04,30,15,15,10.50
2008,04,30,15,16,10.50
2008,04,30,15,17,10.60
2008,04,30,15,18,10.60
2008,04,30,15,19,10.50
2008,04,30,15,20,10.40
2008,04,30,15,21,10.30
2008,04,30,15,22,10.40
2008,04,30,15,23,10.40
2008,04,30,15,24,10.30
2008,04,30,15,25,10.30
2008,04,30,15,26,10.10
2008,04,30,15,27,10.10
2008,04,30,15,28,10.10
2008,04,30,15,29,10.20
2008,04,30,15,30,10.20
2008,04,30,15,31,10.20
2008,04,30,15,32,10.20
2008,04,30,15,33,10.20
2008,04,30,15,34,10.30
2008,04,30,15,35,10.30
2008,04,30,15,36,10.20
2008,04,30,15,37,10.10
2008,04,30,15,38,10.10
2008,04,30,15,39,10.20
2008,04,30,15,40,10.30
2008,04,30,15,41,10.40
2008,04,30,15,42,10.50
2008,04,30,15,43,10.60
2008,04,30,15,44,10.70
2008,04,30,15,45,10.80
2008,04,30,15,46,10.90
2008,04,30,15,47,10.90
2008,04,30,15,48,11.00
2008,04,30,15,49,11.10
2008,04,30,15,50,11.10
2008,04,30,15,51,11.10
2008,04,30,15,52,11.00
2008,04,30,15,53,10.80
2008,04,30,15,54,10.70
2008,04,30,15,55,10.70
2008,04,30,15,56,10.60
2008,04,30,15,57,10.60
2008,04,30,15,58,10.60
2008,04,30,15,59,10.60
2008,04,30,16,00,10.60
2008,04,30,16,01,10.50
2008,04,30,16,02,10.40
2008,04,30,16,03,10.40
2008,04,30,16,04,10.40
2008,04,30,16,05,10.50
2008,04,30,16,06,10.50
2008,04,30,16,07,10.60
2008,04,30,16,08,10.70
2008,04,30,16,09,10.80
2008,04,30,16,10,10.80
2008,04,30,16,11,10.90
2008,04,30,16,12,11.00
2008,04,30,16,13,11.00
2008,04,30,16,14,11.10
2008,04,30,16,15,11.20
2008,04,30,16,16,11.20
2008,04,30,16,17,11.30
2008,04,30,16,18,11.20
2008,04,30,16,19,11.10
2008,04,30,16,20,11.10
2008,04,30,16,21,11.10
2008,04,30,16,22,11.20
2008,04,30,16,23,11.20
2008,04,30,16,24,11.20
2008,04,30,16,25,11.30
2008,04,30,16,26,11.40
2008,04,30,16,27,11.40
2008,04,30,16,28,11.40
2008,04,30,16,29,11.30
2008,04,30,16,30,11.20
2008,04,30,16,31,11.20
2008,04,30,16,32,11.10
2008,04,30,16,33,10.90
2008,04,30,16,34,10.80
2008,04,30,16,35,10.60
2008,04,30,16,36,10.50
2008,04,30,16,37,10.40
2008,04,30,16,38,10.30
2008,04,30,16,39,10.30
2008,04,30,16,40,10.30
2008,04,30,16,41,10.30
2008,04,30,16,42,10.30
2008,04,30,16,43,10.30
2008,04,30,16,44,10.30
2008,04,30,16,45,10.40
2008,04,30,16,46,10.40
2008,04,30,16,47,10.50
2008,04,30,16,48,10.50
2008,04,30,16,49,10.50
2008,04,30,16,50,10.40
2008,04,30,16,51,10.40
2008,04,30,16,52,10.30
2008,04,30,16,53,10.30
2008,04,30,16,54,10.30
2008,04,30,16,55,10.30
2008,04,30,16,56,10.30
2008,04,30,16,57,10.30
2008,04,30,16,58,10.30
2008,04,30,16,59,10.30
2008,04,30,17,00,10.30
2008,04,30,17,01,10.30
2008,04,30,17,02,10.30
2008,04,30,17,03,10.40
2008,04,30,17,04,10.50
2008,04,30,17,05,10.60
2008,04,30,17,06,10.70
2008,04,30,17,07,10.80
2008,04,30,17,08,10.80
2008,04,30,17,09,10.70
2008,04,30,17,10,10.60
2008,04,30,17,11,10.50
2008,04,30,17,12,10.40
2008,04,30,17,13,10.30
2008,04,30,17,14,10.30
2008,04,30,17,15,10.30
2008,04,30,17,16,10.20
2008,04,30,17,17,10.20
2008,04,30,17,18,10.20
2008,04,30,17,19,10.20
2008,04,30,17,20,10.20
2008,04,30,17,21,10.20
2008,04,30,17,22,10.20
2008,04,30,17,23,10.10
2008,04,30,17,24,10.10
2008,04,30,17,25,10.10
2008,04,30,17,26,10.10
2008,04,30,17,27,10.00
2008,04,30,17,28,10.00
2008,04,30,17,29,9.90
2008,04,30,17,30,10.00
2008,04,30,17,31,10.00
2008,04,30,17,32,10.00
2008,04,30,17,33,10.00
2008,04,30,17,34,10.00
2008,04,30,17,35,10.00
2008,04,30,17,36,9.90
2008,04,30,17,37,9.90
2008,04,30,17,38,9.90
2008,04,30,17,39,9.90
2008,04,30,17,40,9.90
2008,04,30,17,41,9.90
2008,04,30,17,42,9.90
2008,04,30,17,43,9.80
2008,04,30,17,44,9.80
2008,04,30,17,45,9.80
2008,04,30,17,46,9.80
2008,04,30,17,47,9.80
2008,04,30,17,48,9.80
2008,04,30,17,49,9.90
2008,04,30,17,50,9.90
2008,04,30,17,51,9.90
2008,04,30,17,52,9.90
2008,04,30,17,53,10.00
2008,04,30,17,54,10.00
2008,04,30,17,55,10.00
2008,04,30,17,56,10.00
2008,04,30,17,57,9.90
2008,04,30,17,58,9.80